Weather History for KY19 - January, 2012

Change the Weather History Date:

Friday, January 20, 2012

  Actual Average (KBIS) Record (KBIS)
Temperature  
Mean Temperature 4 °F 13 °F  
Max Temperature 8 °F 23 °F 53 °F (1964)
Min Temperature 1 °F 2 °F -37 °F (1883)
Degree Days  
Heating Degree Days 60 52  
Month to date heating degree days 1052  
Since 1 July heating degree days 4552  
Cooling Degree Days 0 0  
Month to date cooling degree days 0  
Year to date cooling degree days 0  
Moisture  
Dew Point 0 °F    
Average Humidity 81    
Maximum Humidity 92    
Minimum Humidity 67    
Precipitation  
Precipitation 0.19 in 0.02 in 0.42 in (1906)
Month to date precipitation 0.30  
Year to date precipitation 0.30  
Snow  
Snow 0.00 in 0.30 in 5.20 in (1937)
Month to date snowfall 6.2  
Since 1 July snowfall 26.7  
Snow Depth -    
Sea Level Pressure  
Sea Level Pressure 30.03 in    
Wind  
Wind Speed 4 mph (North)    
Max Wind Speed 10 mph    
Max Gust Speed -    
Visibility 8 miles    
Events Rain , Snow    
T = Trace of Precipitation, MM = Missing Value Source: NWS Daily Summary

Daily Weather History Graph

Daily Weather History Graph

Search for Another Location

Airport or City:

Trip Planner

Search our weather history database for the weather conditions in past years. The results will help you decide how hot, cold, wet, or windy it might be!

Date:

Astronomy

Jan. 20, 2012 Rise Set
Actual Time 8:20 AM CST 5:28 PM CST
Civil Twilight 7:47 AM CST 6:02 PM CST
Nautical Twilight 7:09 AM CST 6:39 PM CST
Astronomical Twilight 6:33 AM CST 7:15 PM CST
Moon 6:04 AM CST (1/20) 2:57 PM CST (1/20)
Length of Visible Light 10h 15m
Length of Day
9h 07m
Waning Crescent, 8% of the Moon is Illuminated
Jan 20
Waning Crescent
Jan 23
New
Jan 30
First Quarter
Feb 7
Full
Feb 14
Last Quarter

Hourly Weather History & Observations

Time (CST) Temp. Windchill Dew Point Humidity Pressure Visibility Wind Dir Wind Speed Gust Speed Precip Events Conditions
12:15 AM 3.2 °F -4.2 °F -0.4 °F 85% 29.89 in 6.0 mi SE 3.5 mph - N/A Snow Light Snow
12:35 AM 1.4 °F - -0.4 °F 92% 29.89 in 7.0 mi Calm Calm - N/A Snow Light Snow
12:55 AM 1.4 °F - -0.4 °F 92% 29.88 in 10.0 mi Calm Calm - N/A   Overcast
1:15 AM 3.2 °F - -0.4 °F 85% 29.89 in 7.0 mi Calm Calm - N/A   Overcast
1:35 AM 3.2 °F - -0.4 °F 85% 29.89 in 10.0 mi Calm Calm - N/A   Overcast
1:55 AM 3.2 °F -4.2 °F -0.4 °F 85% 29.90 in 5.0 mi NE 3.5 mph - N/A Snow Light Snow
2:15 AM 3.2 °F - -0.4 °F 85% 29.91 in 3.0 mi Calm Calm - N/A Snow Light Snow
2:55 AM 3.2 °F -6.2 °F 1.4 °F 92% 29.90 in 4.0 mi East 4.6 mph - 0.05 in Snow Light Snow
3:15 AM 3.2 °F -4.2 °F 1.4 °F 92% 29.91 in 10.0 mi East 3.5 mph - N/A Snow Light Snow
3:35 AM 3.2 °F -7.8 °F 1.4 °F 92% 29.91 in 6.0 mi ENE 5.8 mph - 0.01 in Snow Light Snow
3:55 AM 3.2 °F -6.2 °F 1.4 °F 92% 29.91 in 9.0 mi ENE 4.6 mph - 0.02 in Snow Light Snow
4:15 AM 3.2 °F -6.2 °F 1.4 °F 92% 29.91 in 4.0 mi ENE 4.6 mph - 0.01 in Snow Light Snow
4:35 AM 3.2 °F -6.2 °F 1.4 °F 92% 29.92 in 3.0 mi ENE 4.6 mph - 0.04 in Snow Light Snow
4:55 AM 3.2 °F -4.2 °F 1.4 °F 92% 29.93 in 4.0 mi ENE 3.5 mph - 0.06 in Snow Light Snow
5:15 AM 3.2 °F -4.2 °F 1.4 °F 92% 29.94 in 3.0 mi ENE 3.5 mph - 0.01 in Snow Light Snow
5:35 AM 3.2 °F -6.2 °F 1.4 °F 92% 29.94 in 3.0 mi NE 4.6 mph - 0.02 in Snow Light Snow
5:55 AM 3.2 °F -6.2 °F 1.4 °F 92% 29.95 in 3.0 mi NNE 4.6 mph - 0.03 in Snow Light Snow
6:15 AM 3.2 °F -6.2 °F 1.4 °F 92% 29.96 in 4.0 mi NE 4.6 mph - N/A Snow Light Snow
6:35 AM 3.2 °F -6.2 °F 1.4 °F 92% 29.96 in 5.0 mi NNE 4.6 mph - N/A Snow Light Snow
6:55 AM 3.2 °F -7.8 °F 1.4 °F 92% 29.97 in 5.0 mi NNE 5.8 mph - N/A Rain Light Freezing Rain
7:15 AM 3.2 °F -9.1 °F 1.4 °F 92% 29.98 in 5.0 mi NNE 6.9 mph - N/A   Overcast
7:35 AM 3.2 °F -7.8 °F 1.4 °F 92% 29.99 in 3.0 mi NNE 5.8 mph - N/A Snow Light Snow
7:55 AM 3.2 °F -7.8 °F 1.4 °F 92% 30.00 in 3.0 mi NNE 5.8 mph - 0.02 in Snow Light Snow
8:15 AM 1.4 °F -9.9 °F -0.4 °F 92% 30.01 in 5.0 mi North 5.8 mph - N/A Snow Light Snow
8:35 AM 1.4 °F -11.3 °F -0.4 °F 92% 30.02 in 9.0 mi North 6.9 mph - N/A Snow Light Snow
8:55 AM 3.2 °F -7.8 °F -0.4 °F 85% 30.03 in 5.0 mi North 5.8 mph - 0.01 in Snow Light Snow
9:15 AM 3.2 °F -7.8 °F -0.4 °F 85% 30.03 in 10.0 mi North 5.8 mph - N/A   Overcast
9:35 AM 5.0 °F -8.1 °F 1.4 °F 85% 30.04 in 10.0 mi North 8.1 mph - N/A   Mostly Cloudy
9:55 AM 5.0 °F -10.0 °F 1.4 °F 85% 30.05 in 9.0 mi North 10.4 mph - N/A   Overcast
10:15 AM 5.0 °F -9.1 °F -0.4 °F 78% 30.07 in 10.0 mi NNW 9.2 mph - N/A   Overcast
10:35 AM 5.0 °F -9.1 °F -0.4 °F 78% 30.08 in 10.0 mi North 9.2 mph - N/A Snow Light Snow
10:55 AM 5.0 °F -9.1 °F -0.4 °F 78% 30.09 in 10.0 mi North 9.2 mph - N/A   Overcast
11:15 AM 5.0 °F -6.9 °F -2.2 °F 72% 30.10 in 10.0 mi North 6.9 mph - N/A   Overcast
11:35 AM 5.0 °F -6.9 °F -2.2 °F 72% 30.10 in 10.0 mi North 6.9 mph - N/A   Overcast
11:55 AM 5.0 °F -5.6 °F -0.4 °F 78% 30.10 in 10.0 mi NNW 5.8 mph - N/A Snow Light Snow
12:15 PM 6.8 °F -4.8 °F -0.4 °F 72% 30.10 in 10.0 mi NNW 6.9 mph - N/A Snow Light Snow
12:35 PM 6.8 °F -4.8 °F -0.4 °F 72% 30.10 in 10.0 mi NNW 6.9 mph - N/A   Overcast
12:55 PM 6.8 °F -4.8 °F -0.4 °F 72% 30.10 in 10.0 mi NW 6.9 mph - N/A   Overcast
1:15 PM 6.8 °F -4.8 °F -0.4 °F 72% 30.09 in 10.0 mi NW 6.9 mph - N/A   Overcast
1:55 PM 8.6 °F -3.7 °F -0.4 °F 67% 30.10 in 10.0 mi NNW 8.1 mph - N/A   Overcast
2:15 PM 8.6 °F -1.3 °F -0.4 °F 67% 30.09 in 10.0 mi NNW 5.8 mph - N/A   Overcast
2:35 PM 8.6 °F -2.6 °F -0.4 °F 67% 30.10 in 10.0 mi WNW 6.9 mph - N/A   Overcast
2:55 PM 8.6 °F -2.6 °F -0.4 °F 67% 30.10 in 10.0 mi NW 6.9 mph - N/A   Overcast
3:15 PM 8.6 °F -2.6 °F -0.4 °F 67% 30.10 in 10.0 mi WNW 6.9 mph - N/A   Overcast
3:35 PM 8.6 °F -3.7 °F -0.4 °F 67% 30.10 in 10.0 mi WNW 8.1 mph - N/A   Overcast
3:55 PM 8.6 °F 2.0 °F -0.4 °F 67% 30.09 in 10.0 mi West 3.5 mph - N/A   Overcast
4:15 PM 8.6 °F 2.0 °F -0.4 °F 67% 30.09 in 10.0 mi WNW 3.5 mph - N/A   Overcast
4:35 PM 8.6 °F 2.0 °F -0.4 °F 67% 30.09 in 10.0 mi WNW 3.5 mph - N/A   Overcast
4:55 PM 6.8 °F -2.0 °F -0.4 °F 72% 30.10 in 10.0 mi WNW 4.6 mph - N/A   Overcast
5:15 PM 6.8 °F -2.0 °F -2.2 °F 67% 30.11 in 10.0 mi WNW 4.6 mph - N/A   Partly Cloudy
5:35 PM 5.0 °F - -2.2 °F 72% 30.11 in 10.0 mi Calm Calm - N/A   Clear
5:55 PM 5.0 °F - -2.2 °F 72% 30.12 in 10.0 mi Calm Calm - N/A   Clear
6:35 PM 3.2 °F - -2.2 °F 78% 30.13 in 10.0 mi Calm Calm - N/A   Partly Cloudy
6:55 PM 3.2 °F - -2.2 °F 78% 30.12 in 10.0 mi Calm Calm - N/A   Scattered Clouds
7:15 PM 5.0 °F - -0.4 °F 78% 30.12 in 5.0 mi Calm Calm - N/A   Haze
7:35 PM 5.0 °F - -2.2 °F 72% 30.11 in 5.0 mi Calm Calm - N/A   Haze
7:55 PM 5.0 °F - -2.2 °F 72% 30.11 in 5.0 mi Calm Calm - N/A   Haze
8:15 PM 5.0 °F -2.1 °F -2.2 °F 72% 30.09 in 8.0 mi SSE 3.5 mph - N/A   Clear
8:35 PM 1.4 °F -9.9 °F -2.2 °F 85% 30.08 in 10.0 mi South 5.8 mph - N/A   Clear
8:55 PM 1.4 °F -8.3 °F -2.2 °F 85% 30.08 in 10.0 mi South 4.6 mph - N/A   Clear
9:15 PM 1.4 °F - -0.4 °F 92% 30.07 in 10.0 mi Calm Calm - N/A   Clear
9:35 PM 3.2 °F -7.8 °F -0.4 °F 85% 30.08 in 10.0 mi South 5.8 mph - N/A   Clear
9:55 PM 1.4 °F -8.3 °F -2.2 °F 85% 30.06 in 10.0 mi SSE 4.6 mph - N/A   Clear
10:15 PM -0.4 °F -12.0 °F -2.2 °F 92% 30.06 in 10.0 mi SSE 5.8 mph - N/A   Scattered Clouds
10:35 PM -0.4 °F -12.0 °F -4.0 °F 85% 30.06 in 10.0 mi South 5.8 mph - N/A   Partly Cloudy
10:55 PM -0.4 °F -13.4 °F -4.0 °F 85% 30.04 in 10.0 mi SSE 6.9 mph - N/A   Clear
11:15 PM -0.4 °F -14.7 °F -4.0 °F 85% 30.03 in 10.0 mi SSE 8.1 mph - N/A   Clear
11:35 PM -0.4 °F -12.0 °F -4.0 °F 85% 30.03 in 10.0 mi SE 5.8 mph - N/A   Partly Cloudy
11:55 PM -0.4 °F -12.0 °F -4.0 °F 85% 30.03 in 10.0 mi SSE 5.8 mph - N/A   Partly Cloudy